This is the latest recevied weather packets stored in our database for station/object N3WMC. If no packets are shown the sender has not sent any weather packets the latest 10 day(s).
| Time | Temp. | Humidity | Pressure | Rain* | Wind** | Luminosity | Snow |
|---|---|---|---|---|---|---|---|
| 1777645203 | 10.56° C | 71% | 1013.8 hPa | 0 mm | - | 230 W/m² | - |
| 1777644898 | 10.56° C | 73% | 1014 hPa | 0 mm | - | 252 W/m² | - |
| 1777644597 | 10° C | 74% | 1013.8 hPa | 0 mm | - | 183 W/m² | - |
| 1777644297 | 9.44° C | 76% | 1013.7 hPa | 0 mm | - | 137 W/m² | - |
| 1777643993 | 9.44° C | 77% | 1013.6 hPa | 0 mm | - | 196 W/m² | - |
| 1777643690 | 9.44° C | 79% | 1013.8 hPa | 0 mm | - | 224 W/m² | - |
| 1777643388 | 9.44° C | 81% | 1013.9 hPa | 0 mm | - | 244 W/m² | - |
| 1777643084 | 8.89° C | 81% | 1013.9 hPa | 0 mm | - | 202 W/m² | - |
| 1777642781 | 8.33° C | 83% | 1013.8 hPa | 0 mm | - | 207 W/m² | - |
| 1777642478 | 7.78° C | 84% | 1013.6 hPa | 0 mm | - | 170 W/m² | - |
| 1777642174 | 7.78° C | 87% | 1014 hPa | 0 mm | - | 149 W/m² | - |
| 1777641872 | 7.22° C | 87% | 1014.1 hPa | 0 mm | - | 115 W/m² | - |
| 1777641571 | 6.67° C | 88% | 1014.3 hPa | 0 mm | - | 112 W/m² | - |
| 1777641267 | 6.67° C | 90% | 1014.2 hPa | 0 mm | - | 137 W/m² | - |
| 1777640964 | 6.67° C | 93% | 1014.4 hPa | 0 mm | - | 149 W/m² | - |
| 1777640660 | 6.11° C | 95% | 1014.3 hPa | 0 mm | - | 163 W/m² | - |
| 1777640357 | 6.11° C | 97% | 1014.2 hPa | 0 mm | - | 120 W/m² | - |
| 1777640054 | 5.56° C | 98% | 1014.4 hPa | 0 mm | - | 151 W/m² | - |
| 1777639750 | 5.56° C | 98% | 1014.3 hPa | 0 mm | - | 147 W/m² | - |
| 1777639449 | 5.56° C | 99% | 1014.6 hPa | 0 mm | - | 131 W/m² | - |
| 1777639144 | 5° C | 99% | 1014.5 hPa | 0 mm | - | 131 W/m² | - |
| 1777638841 | 5° C | 99% | 1014.5 hPa | 0 mm | - | 100 W/m² | - |
| 1777638536 | 5° C | 99% | 1014.4 hPa | 0 mm | - | 93 W/m² | - |
| 1777638233 | 5° C | 99% | 1014.7 hPa | 0 mm | - | 121 W/m² | - |
| 1777637929 | 5° C | 99% | 1014.8 hPa | 0 mm | - | 105 W/m² | - |
* Rain latest hour (hover to see other rain measurements)
** Current wind speed in m/s (hover to see current wind gust speed)